Year,Month,Day,Hour,Minute,Value (Times are PST for insolation in W/m^2)
2013,05,22,00,00,0.00
2013,05,22,00,01,0.00
2013,05,22,00,02,0.00
2013,05,22,00,03,0.00
2013,05,22,00,04,0.00
2013,05,22,00,05,0.00
2013,05,22,00,06,0.00
2013,05,22,00,07,0.00
2013,05,22,00,08,0.00
2013,05,22,00,09,0.00
2013,05,22,00,10,0.00
2013,05,22,00,11,0.00
2013,05,22,00,12,0.00
2013,05,22,00,13,0.00
2013,05,22,00,14,0.00
2013,05,22,00,15,0.00
2013,05,22,00,16,0.00
2013,05,22,00,17,0.00
2013,05,22,00,18,0.00
2013,05,22,00,19,0.00
2013,05,22,00,20,0.00
2013,05,22,00,21,0.00
2013,05,22,00,22,0.00
2013,05,22,00,23,0.00
2013,05,22,00,24,0.00
2013,05,22,00,25,0.00
2013,05,22,00,26,0.00
2013,05,22,00,27,0.00
2013,05,22,00,28,0.00
2013,05,22,00,29,0.00
2013,05,22,00,30,0.00
2013,05,22,00,31,0.00
2013,05,22,00,32,0.00
2013,05,22,00,33,0.00
2013,05,22,00,34,0.00
2013,05,22,00,35,0.00
2013,05,22,00,36,0.00
2013,05,22,00,37,0.00
2013,05,22,00,38,0.00
2013,05,22,00,39,0.00
2013,05,22,00,40,0.00
2013,05,22,00,41,0.00
2013,05,22,00,42,0.00
2013,05,22,00,43,0.00
2013,05,22,00,44,0.00
2013,05,22,00,45,0.00
2013,05,22,00,46,0.00
2013,05,22,00,47,0.00
2013,05,22,00,48,0.00
2013,05,22,00,49,0.00
2013,05,22,00,50,0.00
2013,05,22,00,51,0.00
2013,05,22,00,52,0.00
2013,05,22,00,53,0.00
2013,05,22,00,54,0.00
2013,05,22,00,55,0.00
2013,05,22,00,56,0.00
2013,05,22,00,57,0.00
2013,05,22,00,58,0.00
2013,05,22,00,59,0.00
2013,05,22,01,00,0.00
2013,05,22,01,01,0.00
2013,05,22,01,02,0.00
2013,05,22,01,03,0.00
2013,05,22,01,04,0.00
2013,05,22,01,05,0.00
2013,05,22,01,06,0.00
2013,05,22,01,07,0.00
2013,05,22,01,08,0.00
2013,05,22,01,09,0.00
2013,05,22,01,10,0.00
2013,05,22,01,11,0.00
2013,05,22,01,12,0.00
2013,05,22,01,13,0.00
2013,05,22,01,14,0.00
2013,05,22,01,15,0.00
2013,05,22,01,16,0.00
2013,05,22,01,17,0.00
2013,05,22,01,18,0.00
2013,05,22,01,19,0.00
2013,05,22,01,20,0.00
2013,05,22,01,21,0.00
2013,05,22,01,22,0.00
2013,05,22,01,23,0.00
2013,05,22,01,24,0.00
2013,05,22,01,25,0.00
2013,05,22,01,26,0.00
2013,05,22,01,27,0.00
2013,05,22,01,28,0.00
2013,05,22,01,29,0.00
2013,05,22,01,30,0.00
2013,05,22,01,31,0.00
2013,05,22,01,32,0.00
2013,05,22,01,33,0.00
2013,05,22,01,34,0.00
2013,05,22,01,35,0.00
2013,05,22,01,36,0.00
2013,05,22,01,37,0.00
2013,05,22,01,38,0.00
2013,05,22,01,39,0.00
2013,05,22,01,40,0.00
2013,05,22,01,41,0.00
2013,05,22,01,42,0.00
2013,05,22,01,43,0.00
2013,05,22,01,44,0.00
2013,05,22,01,45,0.00
2013,05,22,01,46,0.00
2013,05,22,01,47,0.00
2013,05,22,01,48,0.00
2013,05,22,01,49,0.00
2013,05,22,01,50,0.00
2013,05,22,01,51,0.00
2013,05,22,01,52,0.00
2013,05,22,01,53,0.00
2013,05,22,01,54,0.00
2013,05,22,01,55,0.00
2013,05,22,01,56,0.00
2013,05,22,01,57,0.00
2013,05,22,01,58,0.00
2013,05,22,01,59,0.00
2013,05,22,02,00,0.00
2013,05,22,02,01,0.00
2013,05,22,02,02,0.00
2013,05,22,02,03,0.00
2013,05,22,02,04,0.00
2013,05,22,02,05,0.00
2013,05,22,02,06,0.00
2013,05,22,02,07,0.00
2013,05,22,02,08,0.00
2013,05,22,02,09,0.00
2013,05,22,02,10,0.00
2013,05,22,02,11,0.00
2013,05,22,02,12,0.00
2013,05,22,02,13,0.00
2013,05,22,02,14,0.00
2013,05,22,02,15,0.00
2013,05,22,02,16,0.00
2013,05,22,02,17,0.00
2013,05,22,02,18,0.00
2013,05,22,02,19,0.00
2013,05,22,02,20,0.00
2013,05,22,02,21,0.00
2013,05,22,02,22,0.00
2013,05,22,02,23,0.00
2013,05,22,02,24,0.00
2013,05,22,02,25,0.00
2013,05,22,02,26,0.00
2013,05,22,02,27,0.00
2013,05,22,02,28,0.00
2013,05,22,02,29,0.00
2013,05,22,02,30,0.00
2013,05,22,02,31,0.00
2013,05,22,02,32,0.00
2013,05,22,02,33,0.00
2013,05,22,02,34,0.00
2013,05,22,02,35,0.00
2013,05,22,02,36,0.00
2013,05,22,02,37,0.00
2013,05,22,02,38,0.00
2013,05,22,02,39,0.00
2013,05,22,02,40,0.00
2013,05,22,02,41,0.00
2013,05,22,02,42,0.00
2013,05,22,02,43,0.00
2013,05,22,02,44,0.00
2013,05,22,02,45,0.00
2013,05,22,02,46,0.00
2013,05,22,02,47,0.00
2013,05,22,02,48,0.00
2013,05,22,02,49,0.00
2013,05,22,02,50,0.00
2013,05,22,02,51,0.00
2013,05,22,02,52,0.00
2013,05,22,02,53,0.00
2013,05,22,02,54,0.00
2013,05,22,02,55,0.00
2013,05,22,02,56,0.00
2013,05,22,02,57,0.00
2013,05,22,02,58,0.00
2013,05,22,02,59,0.00
2013,05,22,03,00,0.00
2013,05,22,03,01,0.00
2013,05,22,03,02,0.00
2013,05,22,03,03,0.00
2013,05,22,03,04,0.00
2013,05,22,03,05,0.00
2013,05,22,03,06,0.00
2013,05,22,03,07,0.00
2013,05,22,03,08,0.00
2013,05,22,03,09,0.00
2013,05,22,03,10,0.00
2013,05,22,03,11,0.00
2013,05,22,03,12,0.00
2013,05,22,03,13,0.00
2013,05,22,03,14,0.00
2013,05,22,03,15,0.00
2013,05,22,03,16,0.00
2013,05,22,03,17,0.00
2013,05,22,03,18,0.00
2013,05,22,03,19,0.00
2013,05,22,03,20,0.00
2013,05,22,03,21,0.00
2013,05,22,03,22,0.00
2013,05,22,03,23,0.00
2013,05,22,03,24,0.00
2013,05,22,03,25,0.00
2013,05,22,03,26,0.00
2013,05,22,03,27,0.00
2013,05,22,03,28,0.00
2013,05,22,03,29,0.00
2013,05,22,03,30,0.00
2013,05,22,03,31,0.00
2013,05,22,03,32,0.00
2013,05,22,03,33,0.00
2013,05,22,03,34,0.00
2013,05,22,03,35,0.00
2013,05,22,03,36,0.00
2013,05,22,03,37,0.00
2013,05,22,03,38,0.00
2013,05,22,03,39,0.00
2013,05,22,03,40,0.00
2013,05,22,03,41,0.00
2013,05,22,03,42,0.00
2013,05,22,03,43,0.00
2013,05,22,03,44,0.00
2013,05,22,03,45,0.00
2013,05,22,03,46,0.00
2013,05,22,03,47,0.00
2013,05,22,03,48,0.00
2013,05,22,03,49,0.00
2013,05,22,03,50,0.00
2013,05,22,03,51,0.00
2013,05,22,03,52,0.00
2013,05,22,03,53,0.00
2013,05,22,03,54,0.00
2013,05,22,03,55,0.00
2013,05,22,03,56,0.00
2013,05,22,03,57,0.00
2013,05,22,03,58,0.00
2013,05,22,03,59,0.00
2013,05,22,04,00,0.00
2013,05,22,04,01,0.00
2013,05,22,04,02,0.00
2013,05,22,04,03,0.00
2013,05,22,04,04,0.00
2013,05,22,04,05,0.00
2013,05,22,04,06,0.00
2013,05,22,04,07,0.00
2013,05,22,04,08,0.00
2013,05,22,04,09,0.00
2013,05,22,04,10,0.00
2013,05,22,04,11,0.00
2013,05,22,04,12,0.00
2013,05,22,04,13,0.00
2013,05,22,04,14,0.00
2013,05,22,04,15,0.00
2013,05,22,04,16,0.00
2013,05,22,04,17,0.00
2013,05,22,04,18,0.00
2013,05,22,04,19,0.00
2013,05,22,04,20,0.00
2013,05,22,04,21,0.00
2013,05,22,04,22,0.00
2013,05,22,04,23,0.00
2013,05,22,04,24,0.00
2013,05,22,04,25,0.00
2013,05,22,04,26,0.00
2013,05,22,04,27,0.00
2013,05,22,04,28,0.00
2013,05,22,04,29,0.00
2013,05,22,04,30,0.00
2013,05,22,04,31,0.00
2013,05,22,04,32,0.00
2013,05,22,04,33,0.00
2013,05,22,04,34,0.00
2013,05,22,04,35,0.00
2013,05,22,04,36,0.00
2013,05,22,04,37,0.00
2013,05,22,04,38,0.00
2013,05,22,04,39,0.00
2013,05,22,04,40,0.00
2013,05,22,04,41,0.00
2013,05,22,04,42,0.00
2013,05,22,04,43,0.00
2013,05,22,04,44,0.00
2013,05,22,04,45,0.00
2013,05,22,04,46,0.00
2013,05,22,04,47,0.00
2013,05,22,04,48,0.00
2013,05,22,04,49,0.00
2013,05,22,04,50,0.00
2013,05,22,04,51,0.00
2013,05,22,04,52,0.00
2013,05,22,04,53,0.00
2013,05,22,04,54,0.00
2013,05,22,04,55,0.00
2013,05,22,04,56,0.00
2013,05,22,04,57,0.00
2013,05,22,04,58,0.00
2013,05,22,04,59,0.00
2013,05,22,05,00,0.00
2013,05,22,05,01,0.00
2013,05,22,05,02,0.00
2013,05,22,05,03,0.00
2013,05,22,05,04,0.00
2013,05,22,05,05,0.00
2013,05,22,05,06,0.00
2013,05,22,05,07,0.00
2013,05,22,05,08,0.00
2013,05,22,05,09,0.00
2013,05,22,05,10,0.00
2013,05,22,05,11,0.00
2013,05,22,05,12,0.00
2013,05,22,05,13,0.00
2013,05,22,05,14,0.00
2013,05,22,05,15,0.00
2013,05,22,05,16,0.00
2013,05,22,05,17,0.00
2013,05,22,05,18,0.00
2013,05,22,05,19,0.00
2013,05,22,05,20,0.00
2013,05,22,05,21,0.00
2013,05,22,05,22,0.00
2013,05,22,05,23,0.00
2013,05,22,05,24,0.00
2013,05,22,05,25,0.00
2013,05,22,05,26,0.00
2013,05,22,05,27,0.00
2013,05,22,05,28,0.00
2013,05,22,05,29,0.00
2013,05,22,05,30,0.00
2013,05,22,05,31,0.00
2013,05,22,05,32,3.10
2013,05,22,05,33,5.00
2013,05,22,05,34,5.00
2013,05,22,05,35,5.00
2013,05,22,05,36,5.80
2013,05,22,05,37,7.00
2013,05,22,05,38,7.00
2013,05,22,05,39,7.00
2013,05,22,05,40,8.80
2013,05,22,05,41,9.00
2013,05,22,05,42,9.80
2013,05,22,05,43,11.00
2013,05,22,05,44,11.00
2013,05,22,05,45,11.80
2013,05,22,05,46,12.00
2013,05,22,05,47,12.50
2013,05,22,05,48,14.00
2013,05,22,05,49,15.10
2013,05,22,05,50,16.00
2013,05,22,05,51,17.70
2013,05,22,05,52,18.10
2013,05,22,05,53,19.60
2013,05,22,05,54,21.90
2013,05,22,05,55,23.00
2013,05,22,05,56,24.40
2013,05,22,05,57,29.30
2013,05,22,05,58,33.00
2013,05,22,05,59,34.80
2013,05,22,06,00,39.40
2013,05,22,06,01,38.20
2013,05,22,06,02,34.00
2013,05,22,06,03,34.70
2013,05,22,06,04,33.00
2013,05,22,06,05,33.60
2013,05,22,06,06,35.90
2013,05,22,06,07,38.20
2013,05,22,06,08,41.30
2013,05,22,06,09,45.80
2013,05,22,06,10,50.90
2013,05,22,06,11,59.40
2013,05,22,06,12,65.80
2013,05,22,06,13,74.60
2013,05,22,06,14,81.60
2013,05,22,06,15,85.90
2013,05,22,06,16,90.20
2013,05,22,06,17,91.80
2013,05,22,06,18,94.00
2013,05,22,06,19,99.60
2013,05,22,06,20,105.90
2013,05,22,06,21,110.80
2013,05,22,06,22,115.00
2013,05,22,06,23,122.60
2013,05,22,06,24,122.80
2013,05,22,06,25,129.90
2013,05,22,06,26,143.70
2013,05,22,06,27,149.40
2013,05,22,06,28,152.50
2013,05,22,06,29,151.80
2013,05,22,06,30,153.00
2013,05,22,06,31,151.60
2013,05,22,06,32,142.70
2013,05,22,06,33,154.00
2013,05,22,06,34,139.80
2013,05,22,06,35,137.90
2013,05,22,06,36,136.70
2013,05,22,06,37,123.00
2013,05,22,06,38,113.70
2013,05,22,06,39,116.90
2013,05,22,06,40,121.00
2013,05,22,06,41,123.00
2013,05,22,06,42,126.20
2013,05,22,06,43,127.00
2013,05,22,06,44,125.00
2013,05,22,06,45,118.70
2013,05,22,06,46,111.70
2013,05,22,06,47,107.10
2013,05,22,06,48,104.40
2013,05,22,06,49,102.50
2013,05,22,06,50,101.90
2013,05,22,06,51,99.60
2013,05,22,06,52,98.00
2013,05,22,06,53,98.00
2013,05,22,06,54,99.30
2013,05,22,06,55,100.00
2013,05,22,06,56,101.80
2013,05,22,06,57,102.50
2013,05,22,06,58,104.00
2013,05,22,06,59,104.50
2013,05,22,07,00,107.50
2013,05,22,07,01,112.20
2013,05,22,07,02,120.30
2013,05,22,07,03,128.50
2013,05,22,07,04,136.00
2013,05,22,07,05,142.70
2013,05,22,07,06,149.30
2013,05,22,07,07,155.10
2013,05,22,07,08,163.70
2013,05,22,07,09,171.80
2013,05,22,07,10,174.80
2013,05,22,07,11,176.00
2013,05,22,07,12,174.60
2013,05,22,07,13,172.40
2013,05,22,07,14,171.00
2013,05,22,07,15,171.00
2013,05,22,07,16,171.00
2013,05,22,07,17,171.00
2013,05,22,07,18,169.60
2013,05,22,07,19,167.30
2013,05,22,07,20,162.80
2013,05,22,07,21,161.40
2013,05,22,07,22,159.10
2013,05,22,07,23,156.80
2013,05,22,07,24,155.30
2013,05,22,07,25,153.30
2013,05,22,07,26,150.60
2013,05,22,07,27,148.00
2013,05,22,07,28,145.00
2013,05,22,07,29,142.80
2013,05,22,07,30,142.00
2013,05,22,07,31,143.70
2013,05,22,07,32,140.60
2013,05,22,07,33,139.00
2013,05,22,07,34,140.00
2013,05,22,07,35,141.00
2013,05,22,07,36,141.00
2013,05,22,07,37,140.90
2013,05,22,07,38,138.60
2013,05,22,07,39,136.30
2013,05,22,07,40,135.00
2013,05,22,07,41,134.30
2013,05,22,07,42,134.00
2013,05,22,07,43,134.00
2013,05,22,07,44,133.50
2013,05,22,07,45,132.00
2013,05,22,07,46,132.00
2013,05,22,07,47,132.00
2013,05,22,07,48,133.70
2013,05,22,07,49,137.40
2013,05,22,07,50,142.40
2013,05,22,07,51,146.80
2013,05,22,07,52,148.00
2013,05,22,07,53,146.60
2013,05,22,07,54,142.50
2013,05,22,07,55,139.40
2013,05,22,07,56,143.10
2013,05,22,07,57,145.10
2013,05,22,07,58,142.90
2013,05,22,07,59,143.40
2013,05,22,08,00,148.30
2013,05,22,08,01,157.00
2013,05,22,08,02,162.00
2013,05,22,08,03,162.00
2013,05,22,08,04,160.80
2013,05,22,08,05,158.50
2013,05,22,08,06,158.00
2013,05,22,08,07,158.30
2013,05,22,08,08,160.70
2013,05,22,08,09,163.40
2013,05,22,08,10,169.40
2013,05,22,08,11,180.60
2013,05,22,08,12,191.70
2013,05,22,08,13,203.50
2013,05,22,08,14,209.70
2013,05,22,08,15,211.00
2013,05,22,08,16,213.00
2013,05,22,08,17,219.50
2013,05,22,08,18,227.10
2013,05,22,08,19,235.50
2013,05,22,08,20,244.90
2013,05,22,08,21,261.40
2013,05,22,08,22,293.80
2013,05,22,08,23,300.50
2013,05,22,08,24,311.10
2013,05,22,08,25,316.20
2013,05,22,08,26,304.10
2013,05,22,08,27,287.50
2013,05,22,08,28,279.70
2013,05,22,08,29,273.00
2013,05,22,08,30,281.50
2013,05,22,08,31,282.70
2013,05,22,08,32,275.10
2013,05,22,08,33,276.30
2013,05,22,08,34,278.00
2013,05,22,08,35,280.60
2013,05,22,08,36,277.00
2013,05,22,08,37,269.80
2013,05,22,08,38,267.00
2013,05,22,08,39,269.30
2013,05,22,08,40,273.20
2013,05,22,08,41,271.40
2013,05,22,08,42,262.50
2013,05,22,08,43,250.70
2013,05,22,08,44,234.90
2013,05,22,08,45,219.40
2013,05,22,08,46,205.00
2013,05,22,08,47,195.50
2013,05,22,08,48,193.30
2013,05,22,08,49,198.00
2013,05,22,08,50,210.70
2013,05,22,08,51,222.30
2013,05,22,08,52,221.10
2013,05,22,08,53,207.50
2013,05,22,08,54,190.40
2013,05,22,08,55,179.90
2013,05,22,08,56,171.50
2013,05,22,08,57,170.30
2013,05,22,08,58,175.00
2013,05,22,08,59,186.70
2013,05,22,09,00,216.20
2013,05,22,09,01,264.50
2013,05,22,09,02,285.00
2013,05,22,09,03,332.90
2013,05,22,09,04,352.00
2013,05,22,09,05,481.10
2013,05,22,09,06,535.50
2013,05,22,09,07,564.00
2013,05,22,09,08,542.70
2013,05,22,09,09,517.00
2013,05,22,09,10,516.50
2013,05,22,09,11,565.30
2013,05,22,09,12,562.30
2013,05,22,09,13,549.00
2013,05,22,09,14,528.10
2013,05,22,09,15,538.70
2013,05,22,09,16,546.30
2013,05,22,09,17,506.00
2013,05,22,09,18,496.40
2013,05,22,09,19,445.60
2013,05,22,09,20,396.60
2013,05,22,09,21,387.00
2013,05,22,09,22,387.90
2013,05,22,09,23,403.00
2013,05,22,09,24,396.80
2013,05,22,09,25,407.80
2013,05,22,09,26,409.80
2013,05,22,09,27,422.40
2013,05,22,09,28,365.60
2013,05,22,09,29,363.90
2013,05,22,09,30,354.70
2013,05,22,09,31,317.00
2013,05,22,09,32,331.60
2013,05,22,09,33,322.50
2013,05,22,09,34,308.00
2013,05,22,09,35,360.80
2013,05,22,09,36,322.00
2013,05,22,09,37,311.00
2013,05,22,09,38,294.40
2013,05,22,09,39,283.40
2013,05,22,09,40,272.20
2013,05,22,09,41,268.20
2013,05,22,09,42,258.00
2013,05,22,09,43,261.10
2013,05,22,09,44,269.00
2013,05,22,09,45,279.40
2013,05,22,09,46,294.00
2013,05,22,09,47,299.50
2013,05,22,09,48,299.30
2013,05,22,09,49,307.60
2013,05,22,09,50,321.50
2013,05,22,09,51,363.30
2013,05,22,09,52,431.40
2013,05,22,09,53,434.00
2013,05,22,09,54,509.40
2013,05,22,09,55,595.20
2013,05,22,09,56,580.00
2013,05,22,09,57,475.00
2013,05,22,09,58,457.00
2013,05,22,09,59,406.80
2013,05,22,10,00,400.70
2013,05,22,10,01,398.10
2013,05,22,10,02,392.60
2013,05,22,10,03,358.30
2013,05,22,10,04,310.60
2013,05,22,10,05,299.00
2013,05,22,10,06,299.90
2013,05,22,10,07,299.80
2013,05,22,10,08,296.00
2013,05,22,10,09,288.80
2013,05,22,10,10,285.00
2013,05,22,10,11,281.30
2013,05,22,10,12,267.30
2013,05,22,10,13,250.30
2013,05,22,10,14,240.20
2013,05,22,10,15,240.80
2013,05,22,10,16,238.20
2013,05,22,10,17,217.60
2013,05,22,10,18,189.50
2013,05,22,10,19,166.60
2013,05,22,10,20,149.00
2013,05,22,10,21,137.20
2013,05,22,10,22,128.90
2013,05,22,10,23,124.20
2013,05,22,10,24,124.00
2013,05,22,10,25,128.30
2013,05,22,10,26,134.10
2013,05,22,10,27,144.20
2013,05,22,10,28,153.80
2013,05,22,10,29,167.50
2013,05,22,10,30,183.30
2013,05,22,10,31,196.70
2013,05,22,10,32,203.30
2013,05,22,10,33,203.80
2013,05,22,10,34,201.20
2013,05,22,10,35,196.70
2013,05,22,10,36,190.40
2013,05,22,10,37,186.00
2013,05,22,10,38,181.50
2013,05,22,10,39,178.90
2013,05,22,10,40,177.50
2013,05,22,10,41,176.00
2013,05,22,10,42,173.70
2013,05,22,10,43,171.30
2013,05,22,10,44,170.90
2013,05,22,10,45,168.70
2013,05,22,10,46,167.00
2013,05,22,10,47,167.00
2013,05,22,10,48,167.00
2013,05,22,10,49,167.00
2013,05,22,10,50,166.90
2013,05,22,10,51,164.70
2013,05,22,10,52,162.70
2013,05,22,10,53,161.00
2013,05,22,10,54,161.20
2013,05,22,10,55,162.00
2013,05,22,10,56,161.90
2013,05,22,10,57,160.50
2013,05,22,10,58,162.30
2013,05,22,10,59,164.00
2013,05,22,11,00,168.80
2013,05,22,11,01,176.40
2013,05,22,11,02,182.80
2013,05,22,11,03,186.40
2013,05,22,11,04,188.80
2013,05,22,11,05,190.00
2013,05,22,11,06,190.00
2013,05,22,11,07,188.40
2013,05,22,11,08,183.00
2013,05,22,11,09,180.60
2013,05,22,11,10,179.70
2013,05,22,11,11,179.90
2013,05,22,11,12,179.00
2013,05,22,11,13,182.30
2013,05,22,11,14,196.00
2013,05,22,11,15,210.00
2013,05,22,11,16,223.80
2013,05,22,11,17,238.20
2013,05,22,11,18,243.00
2013,05,22,11,19,235.20
2013,05,22,11,20,236.00
2013,05,22,11,21,236.90
2013,05,22,11,22,240.70
2013,05,22,11,23,240.70
2013,05,22,11,24,230.50
2013,05,22,11,25,227.50
2013,05,22,11,26,239.30
2013,05,22,11,27,243.10
2013,05,22,11,28,248.90
2013,05,22,11,29,246.30
2013,05,22,11,30,240.30
2013,05,22,11,31,236.10
2013,05,22,11,32,226.70
2013,05,22,11,33,215.30
2013,05,22,11,34,212.60
2013,05,22,11,35,208.60
2013,05,22,11,36,206.20
2013,05,22,11,37,206.90
2013,05,22,11,38,207.00
2013,05,22,11,39,202.80
2013,05,22,11,40,190.70
2013,05,22,11,41,182.70
2013,05,22,11,42,179.50
2013,05,22,11,43,183.50
2013,05,22,11,44,198.20
2013,05,22,11,45,225.30
2013,05,22,11,46,256.60
2013,05,22,11,47,286.80
2013,05,22,11,48,320.80
2013,05,22,11,49,353.60
2013,05,22,11,50,377.60
2013,05,22,11,51,399.50
2013,05,22,11,52,417.20
2013,05,22,11,53,436.10
2013,05,22,11,54,444.30
2013,05,22,11,55,455.00
2013,05,22,11,56,502.00
2013,05,22,11,57,642.90
2013,05,22,11,58,654.00
2013,05,22,11,59,517.60
2013,05,22,12,00,454.00
2013,05,22,12,01,1009.50
2013,05,22,12,02,986.00
2013,05,22,12,03,986.00
2013,05,22,12,04,743.30
2013,05,22,12,05,541.00
2013,05,22,12,06,901.90
2013,05,22,12,07,943.70
2013,05,22,12,08,940.50
2013,05,22,12,09,936.00
2013,05,22,12,10,933.80
2013,05,22,12,11,925.60
2013,05,22,12,12,908.00
2013,05,22,12,13,879.40
2013,05,22,12,14,876.70
2013,05,22,12,15,902.20
2013,05,22,12,16,910.80
2013,05,22,12,17,908.20
2013,05,22,12,18,920.40
2013,05,22,12,19,937.30
2013,05,22,12,20,945.30
2013,05,22,12,21,938.00
2013,05,22,12,22,930.70
2013,05,22,12,23,935.50
2013,05,22,12,24,935.60
2013,05,22,12,25,936.30
2013,05,22,12,26,898.60
2013,05,22,12,27,858.00
2013,05,22,12,28,800.70
2013,05,22,12,29,768.00
2013,05,22,12,30,888.80
2013,05,22,12,31,893.50
2013,05,22,12,32,860.40
2013,05,22,12,33,902.30
2013,05,22,12,34,948.10
2013,05,22,12,35,961.80
2013,05,22,12,36,951.10
2013,05,22,12,37,989.30
2013,05,22,12,38,1004.40
2013,05,22,12,39,1003.40
2013,05,22,12,40,1006.60
2013,05,22,12,41,968.30
2013,05,22,12,42,1013.00
2013,05,22,12,43,991.50
2013,05,22,12,44,951.70
2013,05,22,12,45,966.00
2013,05,22,12,46,996.40
2013,05,22,12,47,942.30
2013,05,22,12,48,946.30
2013,05,22,12,49,1027.70
2013,05,22,12,50,1062.00
2013,05,22,12,51,1097.00
2013,05,22,12,52,1131.70
2013,05,22,12,53,1199.90
2013,05,22,12,54,1269.00
2013,05,22,12,55,1269.00
2013,05,22,12,56,898.00
2013,05,22,12,57,526.40
2013,05,22,12,58,540.20
2013,05,22,12,59,593.80
2013,05,22,13,00,531.00
2013,05,22,13,01,470.50
2013,05,22,13,02,324.30
2013,05,22,13,03,296.00
2013,05,22,13,04,277.50
2013,05,22,13,05,263.80
2013,05,22,13,06,254.80
2013,05,22,13,07,243.50
2013,05,22,13,08,234.30
2013,05,22,13,09,224.20
2013,05,22,13,10,212.90
2013,05,22,13,11,203.80
2013,05,22,13,12,198.00
2013,05,22,13,13,188.50
2013,05,22,13,14,176.70
2013,05,22,13,15,163.50
2013,05,22,13,16,150.90
2013,05,22,13,17,138.50
2013,05,22,13,18,132.00
2013,05,22,13,19,132.80
2013,05,22,13,20,135.80
2013,05,22,13,21,143.30
2013,05,22,13,22,151.80
2013,05,22,13,23,157.20
2013,05,22,13,24,168.20
2013,05,22,13,25,179.90
2013,05,22,13,26,189.70
2013,05,22,13,27,197.40
2013,05,22,13,28,203.30
2013,05,22,13,29,209.70
2013,05,22,13,30,214.00
2013,05,22,13,31,218.30
2013,05,22,13,32,225.70
2013,05,22,13,33,234.90
2013,05,22,13,34,238.00
2013,05,22,13,35,262.40
2013,05,22,13,36,277.00
2013,05,22,13,37,285.40
2013,05,22,13,38,282.50
2013,05,22,13,39,273.00
2013,05,22,13,40,272.40
2013,05,22,13,41,286.30
2013,05,22,13,42,304.60
2013,05,22,13,43,321.00
2013,05,22,13,44,335.80
2013,05,22,13,45,353.50
2013,05,22,13,46,383.80
2013,05,22,13,47,400.10
2013,05,22,13,48,404.80
2013,05,22,13,49,408.50
2013,05,22,13,50,419.50
2013,05,22,13,51,440.60
2013,05,22,13,52,474.60
2013,05,22,13,53,524.00
2013,05,22,13,54,612.80
2013,05,22,13,55,751.00
2013,05,22,13,56,607.70
2013,05,22,13,57,545.00
2013,05,22,13,58,536.40
2013,05,22,13,59,481.20
2013,05,22,14,00,486.40
2013,05,22,14,01,456.00
2013,05,22,14,02,428.40
2013,05,22,14,03,429.50
2013,05,22,14,04,461.20
2013,05,22,14,05,489.00
2013,05,22,14,06,489.00
2013,05,22,14,07,489.00
2013,05,22,14,08,446.90
2013,05,22,14,09,433.70
2013,05,22,14,10,490.00
2013,05,22,14,11,490.00
2013,05,22,14,12,490.00
2013,05,22,14,13,490.00
2013,05,22,14,14,464.10
2013,05,22,14,15,459.20
2013,05,22,14,16,415.60
2013,05,22,14,17,405.30
2013,05,22,14,18,421.30
2013,05,22,14,19,436.00
2013,05,22,14,20,753.70
2013,05,22,14,21,834.40
2013,05,22,14,22,675.00
2013,05,22,14,23,675.00
2013,05,22,14,24,675.00
2013,05,22,14,25,675.00
2013,05,22,14,26,675.00
2013,05,22,14,27,583.10
2013,05,22,14,28,607.20
2013,05,22,14,29,680.00
2013,05,22,14,30,574.60
2013,05,22,14,31,485.30
2013,05,22,14,32,489.00
2013,05,22,14,33,489.00
2013,05,22,14,34,601.20
2013,05,22,14,35,919.00
2013,05,22,14,36,919.00
2013,05,22,14,37,919.00
2013,05,22,14,38,919.00
2013,05,22,14,39,932.20
2013,05,22,14,40,1036.40
2013,05,22,14,41,1115.10
2013,05,22,14,42,1160.00
2013,05,22,14,43,1160.00
2013,05,22,14,44,1160.00
2013,05,22,14,45,1095.30
2013,05,22,14,46,1081.80
2013,05,22,14,47,1011.00
2013,05,22,14,48,1116.60
2013,05,22,14,49,1192.00
2013,05,22,14,50,1192.00
2013,05,22,14,51,858.00
2013,05,22,14,52,960.30
2013,05,22,14,53,1194.00
2013,05,22,14,54,1194.00
2013,05,22,14,55,961.20
2013,05,22,14,56,857.80
2013,05,22,14,57,367.70
2013,05,22,14,58,350.70
2013,05,22,14,59,342.20
2013,05,22,15,00,333.10
2013,05,22,15,01,330.00
2013,05,22,15,02,333.90
2013,05,22,15,03,344.50
2013,05,22,15,04,352.40
2013,05,22,15,05,358.50
2013,05,22,15,06,360.00
2013,05,22,15,07,361.60
2013,05,22,15,08,381.90
2013,05,22,15,09,373.20
2013,05,22,15,10,384.40
2013,05,22,15,11,390.00
2013,05,22,15,12,384.10
2013,05,22,15,13,369.50
2013,05,22,15,14,356.80
2013,05,22,15,15,351.10
2013,05,22,15,16,371.40
2013,05,22,15,17,403.80
2013,05,22,15,18,455.90
2013,05,22,15,19,531.80
2013,05,22,15,20,445.50
2013,05,22,15,21,460.50
2013,05,22,15,22,459.00
2013,05,22,15,23,557.30
2013,05,22,15,24,633.00
2013,05,22,15,25,633.00
2013,05,22,15,26,633.00
2013,05,22,15,27,633.00
2013,05,22,15,28,633.00
2013,05,22,15,29,633.00
2013,05,22,15,30,633.00
2013,05,22,15,31,918.00
2013,05,22,15,32,947.80
2013,05,22,15,33,853.50
2013,05,22,15,34,814.00
2013,05,22,15,35,641.70
2013,05,22,15,36,477.80
2013,05,22,15,37,507.70
2013,05,22,15,38,499.30
2013,05,22,15,39,425.00
2013,05,22,15,40,425.00
2013,05,22,15,41,791.20
2013,05,22,15,42,1011.00
2013,05,22,15,43,821.10
2013,05,22,15,44,863.00
2013,05,22,15,45,790.30
2013,05,22,15,46,654.00
2013,05,22,15,47,654.00
2013,05,22,15,48,582.00
2013,05,22,15,49,549.50
2013,05,22,15,50,408.00
2013,05,22,15,51,461.20
2013,05,22,15,52,503.10
2013,05,22,15,53,456.00
2013,05,22,15,54,452.00
2013,05,22,15,55,482.60
2013,05,22,15,56,453.00
2013,05,22,15,57,435.50
2013,05,22,15,58,426.60
2013,05,22,15,59,500.30
2013,05,22,16,00,538.40
2013,05,22,16,01,568.80
2013,05,22,16,02,770.00
2013,05,22,16,03,770.00
2013,05,22,16,04,558.60
2013,05,22,16,05,375.10
2013,05,22,16,06,358.50
2013,05,22,16,07,361.70
2013,05,22,16,08,377.40
2013,05,22,16,09,399.70
2013,05,22,16,10,470.40
2013,05,22,16,11,513.00
2013,05,22,16,12,392.40
2013,05,22,16,13,398.30
2013,05,22,16,14,391.70
2013,05,22,16,15,319.70
2013,05,22,16,16,305.50
2013,05,22,16,17,303.50
2013,05,22,16,18,304.10
2013,05,22,16,19,307.60
2013,05,22,16,20,317.70
2013,05,22,16,21,331.60
2013,05,22,16,22,359.30
2013,05,22,16,23,394.50
2013,05,22,16,24,401.00
2013,05,22,16,25,466.50
2013,05,22,16,26,689.00
2013,05,22,16,27,638.80
2013,05,22,16,28,523.40
2013,05,22,16,29,487.00
2013,05,22,16,30,368.90
2013,05,22,16,31,362.40
2013,05,22,16,32,350.20
2013,05,22,16,33,341.10
2013,05,22,16,34,329.00
2013,05,22,16,35,314.60
2013,05,22,16,36,309.20
2013,05,22,16,37,309.00
2013,05,22,16,38,309.80
2013,05,22,16,39,316.70
2013,05,22,16,40,338.00
2013,05,22,16,41,332.70
2013,05,22,16,42,324.20
2013,05,22,16,43,328.30
2013,05,22,16,44,315.80
2013,05,22,16,45,307.00
2013,05,22,16,46,296.40
2013,05,22,16,47,288.20
2013,05,22,16,48,281.80
2013,05,22,16,49,272.00
2013,05,22,16,50,267.00
2013,05,22,16,51,261.10
2013,05,22,16,52,242.80
2013,05,22,16,53,217.10
2013,05,22,16,54,205.30
2013,05,22,16,55,201.10
2013,05,22,16,56,199.00
2013,05,22,16,57,199.00
2013,05,22,16,58,199.00
2013,05,22,16,59,199.00
2013,05,22,17,00,199.90
2013,05,22,17,01,198.30
2013,05,22,17,02,195.10
2013,05,22,17,03,192.40
2013,05,22,17,04,188.90
2013,05,22,17,05,181.40